Location: La Fredeussais
(48.1780°N, 1.3980°W)
Time: 16:06:14
(UTC+00:00)

X-37B - Pass Details

Date: 08 August 2021
Orbit: 381 x 393 km, 45.0° (Epoch: 29 August)

Event Time Altitude Azimuth Distance (km) Brightness Sun altitude
Exits shadow 03:09:43 34° 225° (SW) 652 1.1 -14.5°
Maximum altitude 03:10:38 46° 177° (S) 521 0.9 -14.3°
Drops below altitude 10° 03:13:40 10° 102° (ESE) 1,397 3.8 -14.0°
Sets 03:15:46 0° 96° (E) 2,251 5.1 -13.7°
